Date,TemperatureHighF,TemperatureAvgF,TemperatureLowF,DewpointHighF,DewpointAvgF,DewpointLowF,HumidityHigh,HumidityAvg,HumidityLow,PressureMaxIn,PressureMinIn,WindSpeedMaxMPH,WindSpeedAvgMPH,GustSpeedMaxMPH,PrecipitationSumIn
2013-2-1,72,66,61,62,55,49,80,67,54,30.23,30.12,14,10,24,0.00
2013-2-2,73,68,64,61,58,54,82,70,58,30.21,30.09,13,8,21,0.00
2013-2-3,70,68,65,62,57,47,86,69,52,30.16,30.05,14,8,25,0.00
2013-2-4,71,69,63,60,55,48,78,63,46,30.11,30.00,12,7,16,0.00
2013-2-5,76,70,66,67,64,59,90,80,70,30.05,29.98,9,4,14,0.00
2013-2-6,79,73,68,72,68,65,96,83,66,30.07,29.99,11,5,17,0.00
2013-2-7,79,75,72,70,68,65,91,77,63,30.06,29.93,11,6,19,0.00
2013-2-8,82,76,72,74,72,69,93,86,71,30.04,29.93,12,6,17,0.00
2013-2-9,78,73,68,72,68,63,92,83,75,30.12,30.01,16,9,23,0.00
2013-2-10,77,75,73,68,67,64,83,75,66,30.19,30.09,17,13,27,0.00
2013-2-11,79,76,73,71,69,66,88,80,73,30.17,30.08,14,11,22,0.00
2013-2-12,81,77,75,74,71,69,91,83,72,30.09,29.96,10,7,17,0.00
2013-2-13,82,78,75,75,73,72,94,86,75,30.01,29.92,9,5,14,0.00
2013-2-14,82,77,67,75,73,65,96,87,78,29.99,29.89,20,7,35,0.33
2013-2-15,75,70,67,71,68,66,97,93,85,30.00,29.91,10,6,21,0.71
2013-2-16,71,68,65,70,62,51,98,79,60,30.08,29.87,20,12,32,0.21
2013-2-17,65,58,54,53,42,35,69,56,44,30.28,30.07,17,10,31,0.00
2013-2-18,70,63,54,59,50,36,72,64,49,30.27,30.15,18,9,26,0.00
2013-2-19,75,70,67,69,65,57,96,84,65,30.16,30.07,10,6,17,0.66
2013-2-20,75,71,67,70,67,65,97,89,75,30.10,29.98,12,6,17,0.02
2013-2-21,78,74,70,72,69,67,96,85,70,30.06,29.97,10,7,18,0.02
2013-2-22,79,76,74,73,72,71,92,86,79,30.07,29.97,12,8,18,0.00
2013-2-23,82,78,76,74,73,72,93,85,76,30.01,29.92,11,6,18,0.00
2013-2-24,82,78,75,77,74,72,95,87,76,29.99,29.89,7,3,11,0.00
2013-2-25,82,79,76,76,74,72,93,86,73,29.90,29.78,13,7,18,0.00
2013-2-26,83,79,77,76,74,72,90,84,77,29.91,29.78,12,7,22,0.00
2013-2-27,82,75,72,76,72,68,93,88,77,29.96,29.86,13,6,17,0.02
2013-2-28,72,70,65,69,59,46,91,69,42,29.99,29.90,12,6,21,0.00